Weather History for North Wilkesboro, NC

Change the Weather History Date:

Monday, April 22, 2013

  Actual Average Record
Temperature  
Mean Temperature 47 °F -  
Max Temperature 59 °F 71 °F 90 °F (1963)
Min Temperature 35 °F 44 °F 30 °F (1962)
Degree Days  
Heating Degree Days 18    
Moisture  
Dew Point 31 °F    
Average Humidity 55    
Maximum Humidity 87    
Minimum Humidity 31    
Precipitation  
Precipitation 0.00 in - - ()
Sea Level Pressure  
Sea Level Pressure 30.41 in    
Wind  
Wind Speed 6 mph (NE)    
Max Wind Speed 12 mph    
Max Gust Speed 16 mph    
Visibility 10 miles    
Events      
Averages and records for this station are not official NWS values.
T = Trace of Precipitation, MM = Missing Value Source: NWS Daily Summary

Daily Weather History Graph

Daily Weather History Graph

Search for Another Location

Airport:

Trip Planner

Search our weather history database for the weather conditions in past years. The results will help you decide how hot, cold, wet, or windy it might be!

Date:

Astronomy

Apr. 22, 2013 Rise Set
Actual Time 6:41 AM EDT 8:04 PM EDT
Civil Twilight 6:14 AM EDT 8:31 PM EDT
Nautical Twilight 5:42 AM EDT 9:03 PM EDT
Astronomical Twilight 5:08 AM EDT 9:37 PM EDT
Moon 4:57 PM EDT (4/22) 4:29 AM EDT (4/22)
Length of Visible Light 14h 16m
Length of Day
13h 22m
Waxing Gibbous, 87% of the Moon is Illuminated
Apr 22
Waxing Gibbous
Apr 25
Full
May 2
Last Quarter
May 9
New
May 18
First Quarter

Hourly Weather History & Observations

Time (EDT) Temp. Windchill Dew Point Humidity Pressure Visibility Wind Dir Wind Speed Gust Speed Precip Events Conditions
12:15 AM 48.2 °F - 33.8 °F 58% 30.49 in 10.0 mi NE 5.8 mph - N/A   Overcast
12:35 AM 46.4 °F 43.5 °F 33.8 °F 62% 30.48 in 10.0 mi ENE 5.8 mph - N/A   Overcast
12:55 AM 46.4 °F 43.5 °F 35.6 °F 66% 30.49 in 10.0 mi NE 5.8 mph - N/A   Overcast
1:15 AM 46.4 °F 44.3 °F 35.6 °F 66% 30.48 in 10.0 mi NE 4.6 mph - N/A   Overcast
1:35 AM 44.6 °F 41.4 °F 35.6 °F 71% 30.47 in 10.0 mi NE 5.8 mph - N/A   Overcast
1:55 AM 44.6 °F 41.4 °F 33.8 °F 66% 30.47 in 10.0 mi NE 5.8 mph - N/A   Scattered Clouds
2:15 AM 44.6 °F 41.4 °F 33.8 °F 66% 30.47 in 10.0 mi NE 5.8 mph - N/A   Clear
2:35 AM 42.8 °F 39.3 °F 33.8 °F 70% 30.46 in 10.0 mi NNE 5.8 mph - N/A   Clear
2:55 AM 42.8 °F 39.3 °F 33.8 °F 70% 30.46 in 10.0 mi NE 5.8 mph - N/A   Clear
3:15 AM 42.8 °F 39.3 °F 33.8 °F 70% 30.46 in 10.0 mi NE 5.8 mph - N/A   Clear
3:35 AM 42.8 °F 39.3 °F 33.8 °F 70% 30.46 in 10.0 mi NE 5.8 mph - N/A   Clear
3:55 AM 42.8 °F 39.3 °F 33.8 °F 70% 30.46 in 10.0 mi NE 5.8 mph - N/A   Clear
4:15 AM 41.0 °F 36.4 °F 33.8 °F 76% 30.46 in 10.0 mi NE 6.9 mph - N/A   Clear
4:35 AM 41.0 °F 38.0 °F 33.8 °F 76% 30.46 in 10.0 mi NE 4.6 mph - N/A   Clear
4:55 AM 41.0 °F 37.1 °F 33.8 °F 76% 30.46 in 10.0 mi NE 5.8 mph - N/A   Clear
5:15 AM 39.2 °F 34.2 °F 33.8 °F 81% 30.46 in 10.0 mi NE 6.9 mph - N/A   Clear
5:35 AM 39.2 °F 35.0 °F 32.0 °F 75% 30.46 in 10.0 mi NE 5.8 mph - N/A   Clear
5:55 AM 37.4 °F 34.9 °F 32.0 °F 81% 30.47 in 10.0 mi ENE 3.5 mph - N/A   Clear
6:15 AM 37.4 °F - 32.0 °F 81% 30.47 in 10.0 mi Calm Calm - N/A   Clear
6:35 AM 37.4 °F - 32.0 °F 81% 30.48 in 10.0 mi Calm Calm - N/A   Clear
6:55 AM 35.6 °F - 32.0 °F 87% 30.49 in 10.0 mi Calm Calm - N/A   Clear
7:15 AM 37.4 °F - 32.0 °F 81% 30.50 in 10.0 mi Calm Calm - N/A   Clear
7:35 AM 37.4 °F - 32.0 °F 81% 30.51 in 10.0 mi Calm Calm - N/A   Clear
7:55 AM 39.2 °F 35.9 °F 32.0 °F 75% 30.51 in 10.0 mi NE 4.6 mph - N/A   Clear
8:15 AM 41.0 °F 37.1 °F 30.2 °F 65% 30.51 in 10.0 mi ENE 5.8 mph - N/A   Clear
8:35 AM 41.0 °F 36.4 °F 30.2 °F 65% 30.51 in 10.0 mi NE 6.9 mph - N/A   Clear
8:55 AM 42.8 °F 39.3 °F 28.4 °F 57% 30.51 in 10.0 mi ENE 5.8 mph - N/A   Clear
9:15 AM 42.8 °F 38.6 °F 28.4 °F 57% 30.50 in 10.0 mi NE 6.9 mph - N/A   Clear
9:35 AM 42.8 °F 37.5 °F 28.4 °F 57% 30.50 in 10.0 mi ENE 9.2 mph - N/A   Clear
9:55 AM 44.6 °F 39.7 °F 30.2 °F 57% 30.50 in 10.0 mi ENE 9.2 mph - N/A   Clear
10:15 AM 44.6 °F 40.2 °F 30.2 °F 57% 30.50 in 10.0 mi NE 8.1 mph - N/A   Clear
10:35 AM 46.4 °F 41.9 °F 30.2 °F 53% 30.49 in 10.0 mi East 9.2 mph - N/A   Clear
10:55 AM 46.4 °F 42.4 °F 30.2 °F 53% 30.49 in 10.0 mi ENE 8.1 mph - N/A   Clear
11:15 AM 46.4 °F 42.4 °F 30.2 °F 53% 30.47 in 10.0 mi ENE 8.1 mph - N/A   Clear
11:35 AM 48.2 °F - 30.2 °F 50% 30.47 in 10.0 mi NE 5.8 mph - N/A   Clear
11:55 AM 50.0 °F - 30.2 °F 47% 30.45 in 10.0 mi East 10.4 mph 16.1 mph N/A   Clear
12:15 PM 50.0 °F - 30.2 °F 47% 30.44 in 10.0 mi NE 5.8 mph - N/A   Clear
12:35 PM 51.8 °F - 32.0 °F 47% 30.43 in 10.0 mi East 6.9 mph - N/A   Clear
12:55 PM 51.8 °F - 32.0 °F 47% 30.42 in 10.0 mi East 9.2 mph - N/A   Clear
1:15 PM 51.8 °F - 32.0 °F 47% 30.41 in 10.0 mi NE 6.9 mph - N/A   Clear
1:35 PM 53.6 °F - 32.0 °F 44% 30.39 in 10.0 mi NNE 5.8 mph - N/A   Clear
1:55 PM 55.4 °F - 32.0 °F 41% 30.38 in 10.0 mi East 8.1 mph - N/A   Clear
2:15 PM 53.6 °F - 32.0 °F 44% 30.37 in 10.0 mi NNE 5.8 mph - N/A   Clear
2:35 PM 55.4 °F - 32.0 °F 41% 30.37 in 10.0 mi East 8.1 mph - N/A   Clear
2:55 PM 57.2 °F - 30.2 °F 36% 30.36 in 10.0 mi ENE 9.2 mph - N/A   Clear
3:15 PM 57.2 °F - 30.2 °F 36% 30.35 in 10.0 mi East 5.8 mph - N/A   Clear
3:35 PM 57.2 °F - 30.2 °F 36% 30.34 in 10.0 mi ENE 10.4 mph - N/A   Clear
3:55 PM 59.0 °F - 30.2 °F 34% 30.33 in 10.0 mi East 11.5 mph - N/A   Clear
4:15 PM 59.0 °F - 32.0 °F 36% 30.32 in 10.0 mi East 11.5 mph 16.1 mph N/A   Clear
4:35 PM 59.0 °F - 30.2 °F 34% 30.32 in 10.0 mi ENE 10.4 mph - N/A   Clear
4:55 PM 59.0 °F - 28.4 °F 31% 30.31 in 10.0 mi East 4.6 mph - N/A   Clear
5:15 PM 59.0 °F - 28.4 °F 31% 30.31 in 10.0 mi ENE 11.5 mph - N/A   Clear
5:35 PM 59.0 °F - 30.2 °F 34% 30.30 in 10.0 mi East 3.5 mph - N/A   Clear
5:55 PM 59.0 °F - 28.4 °F 31% 30.30 in 10.0 mi ENE 6.9 mph - N/A   Clear
6:15 PM 59.0 °F - 28.4 °F 31% 30.30 in 10.0 mi East 5.8 mph - N/A   Clear
6:35 PM 59.0 °F - 28.4 °F 31% 30.30 in 10.0 mi ENE 5.8 mph - N/A   Clear
6:55 PM 57.2 °F - 30.2 °F 36% 30.30 in 10.0 mi East 6.9 mph - N/A   Clear
7:15 PM 57.2 °F - 30.2 °F 36% 30.30 in 10.0 mi East 4.6 mph - N/A   Clear
7:35 PM 55.4 °F - 28.4 °F 36% 30.30 in 10.0 mi ENE 4.6 mph - N/A   Clear
7:55 PM 53.6 °F - 28.4 °F 38% 30.30 in 10.0 mi ENE 3.5 mph - N/A   Clear
8:15 PM 53.6 °F - 30.2 °F 41% 30.31 in 10.0 mi ENE 3.5 mph - N/A   Clear
8:35 PM 51.8 °F - 28.4 °F 41% 30.31 in 10.0 mi ENE 3.5 mph - N/A   Clear
8:55 PM 51.8 °F - 28.4 °F 41% 30.32 in 10.0 mi NE 3.5 mph - N/A   Clear
9:15 PM 50.0 °F - 30.2 °F 47% 30.33 in 10.0 mi NE 4.6 mph - N/A   Clear
9:35 PM 48.2 °F - 30.2 °F 50% 30.33 in 10.0 mi NE 4.6 mph - N/A   Clear
9:55 PM 50.0 °F - 30.2 °F 47% 30.34 in 10.0 mi NE 3.5 mph - N/A   Clear
10:15 PM 46.4 °F 45.2 °F 30.2 °F 53% 30.35 in 10.0 mi NNE 3.5 mph - N/A   Clear
10:35 PM 44.6 °F 42.2 °F 30.2 °F 57% 30.34 in 10.0 mi NNE 4.6 mph - N/A   Clear
10:55 PM 44.6 °F 41.4 °F 30.2 °F 57% 30.34 in 10.0 mi North 5.8 mph - N/A   Clear
11:15 PM 42.8 °F 39.3 °F 30.2 °F 61% 30.34 in 10.0 mi North 5.8 mph - N/A   Clear
11:35 PM 42.8 °F 39.3 °F 30.2 °F 61% 30.33 in 10.0 mi NNE 5.8 mph - N/A   Clear
11:55 PM 42.8 °F 40.1 °F 30.2 °F 61% 30.33 in 10.0 mi NNE 4.6 mph - N/A   Clear